Albany, NY

5:37 AM EST on November 13, 2019 (GMT -0500)
Albany International

Weather History for KALB - July, 2019

Change the Weather History Date:

Friday, July 12, 2019

  Actual Average Record
Temperature  
Mean Temperature 75 °F 72 °F  
Max Temperature 81 °F 82 °F 96 °F (1935)
Min Temperature 69 °F 62 °F 44 °F (1978)
Degree Days  
Heating Degree Days 0 0  
Month to date heating degree days 0 0  
Since 1 June heating degree days 27 52  
Since 1 July heating degree days 0 0  
Cooling Degree Days 10 7  
Month to date cooling degree days 134 81  
Year to date cooling degree days 284 229  
Since 1 June cooling degree days 262 199  
Growing Degree Days 26 (Base 50)    
Moisture  
Dew Point 65 °F    
Average Humidity 71    
Maximum Humidity 90    
Minimum Humidity 51    
Precipitation  
Precipitation 0.00 in 0.13 in 2.32 in (1874)
Month to date precipitation 0.51 1.57  
Year to date precipitation 21.38 20.14  
Sea Level Pressure  
Sea Level Pressure 29.75 in    
Wind  
Wind Speed 10 mph (West)    
Max Wind Speed 22 mph    
Max Gust Speed 28 mph    
Visibility 10 miles    
Events      
T = Trace of Precipitation, MM = Missing Value Source: NWS Daily Summary

Daily Weather History Graph

Daily Weather History Graph

Search for Another Location

Airport or City:

Astronomy

Jul. 12, 2019 Rise Set
Actual Time 5:27 AM EDT 8:33 PM EDT
Civil Twilight 4:53 AM EDT 9:07 PM EDT
Nautical Twilight 4:09 AM EDT 9:51 PM EDT
Astronomical Twilight 3:17 AM EDT 10:43 PM EDT
Moon 4:47 PM EDT (7/12) 2:13 AM EDT (7/12)
Length of Visible Light 16h 13m
Length of Day
15h 05m
Waxing Gibbous, 82% of the Moon is Illuminated
Jul 12
Waxing Gibbous
Jul 16
Full
Jul 24
Last Quarter
Jul 31
New
Aug 7
First Quarter

Hourly Weather History & Observations

Time (EDT) Temp. Heat Index Dew Point Humidity Pressure Visibility Wind Dir Wind Speed Gust Speed Precip Events Conditions
12:51 AM 73.9 °F - 66.9 °F 79% 29.75 in 10.0 mi South 8.1 mph - N/A   Overcast
1:51 AM 73.0 °F - 66.9 °F 81% 29.73 in 10.0 mi SSW 5.8 mph - N/A   Mostly Cloudy
2:23 AM 72.0 °F - 66.9 °F 84% 29.73 in 10.0 mi SSW 6.9 mph - N/A   Overcast
2:51 AM 73.0 °F - 66.9 °F 81% 29.71 in 10.0 mi South 9.2 mph - N/A   Overcast
3:22 AM 73.0 °F - 66.9 °F 81% 29.70 in 10.0 mi South 6.9 mph - N/A   Mostly Cloudy
3:51 AM 73.0 °F - 68.0 °F 84% 29.68 in 10.0 mi SSE 3.5 mph - N/A   Mostly Cloudy
4:12 AM 73.0 °F - 68.0 °F 84% 29.70 in 10.0 mi Calm Calm - N/A   Mostly Cloudy
4:51 AM 72.0 °F - 68.0 °F 87% 29.70 in 10.0 mi Calm Calm - N/A   Overcast
5:22 AM 72.0 °F - 68.0 °F 87% 29.70 in 10.0 mi SSW 5.8 mph - N/A   Mostly Cloudy
5:51 AM 72.0 °F - 66.9 °F 84% 29.70 in 10.0 mi SW 3.5 mph - N/A   Mostly Cloudy
6:28 AM 73.0 °F - 69.1 °F 87% 29.72 in 10.0 mi Calm Calm - N/A   Mostly Cloudy
6:51 AM 73.0 °F - 68.0 °F 84% 29.72 in 10.0 mi SW 3.5 mph - N/A   Overcast
7:04 AM 73.0 °F - 68.0 °F 84% 29.72 in 10.0 mi West 3.5 mph - N/A   Overcast
7:51 AM 73.9 °F - 66.0 °F 76% 29.73 in 10.0 mi West 6.9 mph - N/A   Overcast
8:51 AM 75.0 °F - 64.9 °F 71% 29.73 in 10.0 mi WNW 5.8 mph - N/A   Overcast
9:51 AM 75.9 °F - 64.0 °F 67% 29.74 in 10.0 mi WNW 12.7 mph - N/A   Mostly Cloudy
10:51 AM 79.0 °F - 63.0 °F 58% 29.76 in 10.0 mi NW 12.7 mph - N/A   Mostly Cloudy
11:51 AM 78.1 °F - 62.1 °F 58% 29.76 in 10.0 mi West 15.0 mph 19.6 mph N/A   Mostly Cloudy
12:51 PM 79.0 °F - 60.1 °F 52% 29.76 in 10.0 mi WNW 15.0 mph 23.0 mph N/A   Mostly Cloudy
1:51 PM 81.0 °F 81.7 °F 61.0 °F 50% 29.76 in 10.0 mi West 11.5 mph 21.9 mph N/A   Scattered Clouds
2:51 PM 77.0 °F - 61.0 °F 58% 29.77 in 10.0 mi West 13.8 mph - N/A   Mostly Cloudy
3:51 PM 79.0 °F - 61.0 °F 54% 29.75 in 10.0 mi WNW 16.1 mph 21.9 mph N/A   Mostly Cloudy
4:51 PM 78.1 °F - 63.0 °F 60% 29.75 in 10.0 mi WNW 11.5 mph - N/A   Mostly Cloudy
5:51 PM 78.1 °F - 64.0 °F 62% 29.75 in 10.0 mi WNW 17.3 mph 27.6 mph N/A   Mostly Cloudy
6:51 PM 77.0 °F - 64.0 °F 64% 29.77 in 10.0 mi WNW 12.7 mph - N/A   Partly Cloudy
7:51 PM 75.0 °F - 63.0 °F 66% 29.79 in 10.0 mi WNW 9.2 mph - N/A   Partly Cloudy
8:51 PM 73.0 °F - 63.0 °F 71% 29.81 in 10.0 mi West 8.1 mph - N/A   Scattered Clouds
9:51 PM 72.0 °F - 63.0 °F 73% 29.83 in 10.0 mi WNW 12.7 mph - N/A   Scattered Clouds
10:51 PM 72.0 °F - 62.1 °F 71% 29.86 in 10.0 mi WNW 10.4 mph - N/A   Mostly Cloudy
11:51 PM 71.1 °F - 60.1 °F 68% 29.87 in 10.0 mi WNW 10.4 mph - N/A   Scattered Clouds